CZ-11 DEB, 41846

Orbit data source: Space-Track

CZ-11 DEB, 41846 is space debris in SSO originally from a launch on Wed, 09 Nov 2016 UTC launched from the Jiuquan Satellite Launch Center, China (JSC). Debris objects in space refer to the collection of defunct objects orbiting the Earth. Examples of debris include non-operational satellites, rocket bodies, and fragments generated from explosions, collisions, or faulty payload assembly.

Loading next visibility...
Identifier
41846, 2016-066F
Orbit
SSO
Country
Flag of CNCN / PRC
Related business
Manufacturer
CALT
Mission
Spacecraft
Bus & Motor
Unknown
Mass
Unknown
Launch date (UTC)
2016-11-09 (9 years ago)
Launch vehicle
Unknown
Launch site
Jiuquan Satellite Launch Center, China (JSC)
Object type
Payload
Rocket body
Debris
Shape & HBR
Unknown shape, 0.1 m
Radar Cross Section
Small (<0.1 m²)

Expand to show TLE details & history
Last TLE update: 17 hours ago

TLE from 17 hours ago
0 CZ-11 DEB
1 41846U 16066F   25309.16977174  .00003880  00000-0  49706-3 0  9991
2 41846  98.4369  32.5382 0314056  72.3536 291.1690 14.52844920472495
Epoch: 2025-11-05T04:04Z
TLE epoch observation values (Epoch: 2025-11-05T04:04:28.278Z)
Latitude
-0.00005°
Longitude
-73.22591°
Altitude
645.053 km
Speed
7.575 km/s
True Right ascension
02h 10m 09s
True Declination
0° 00' 00"
Sunlit
Object was in full shadow at epoch
Visualization orbit readout
Latitude
Unknown
Longitude
Unknown
Altitude
Unknown
Speed
Unknown
Apparent Right ascension
Unknown
Apparent Declination
Unknown
Sunlit
N/A
Visualization observer readout
Local Sidereal Time
16:54:51
Azimuth
Unknown
Elevation
Unknown
Doppler factor
Unknown
Orbital elements
Apogee altitude
936.185 km
Perigee altitude
490.753 km
Semi-major axis
7,091.606 km
Eccentricity
0.03141
Inclination
98.4369°
RAAN
32.5382°
Arg. of periapsis
72.3536°
True anomaly
287.76681°
Mean anomaly
291.169°
Eccentric anomaly
289.47252°
Mean motion
3.63435 °/min
Orbital period
99.05 mins
BSTAR
0.00049706
Loading maneuver chart data...
Computing Atmospheric mass density...
Loading historical data...
Loading historical data...
Loading historical data...
Loading historical data...
Loading historical data...
Loading historical data...
Loading historical data...

Documentation

Showing up to 5 results
|